Language: 


Des rapports , des résumés tant et plus, au choix de chacun....


Données statistiques de la station
Quotidien Rapport Février 15, 2017 Unités:  Métrique    Anglais   les deux
« Précédent Jour
Suivant Jour »
Quotidien Hebdomadaire Mensuel Annuel Actuel
  Haut: Bas: Moyen:
Température: 16.3 °C 3.3 °C 9.1 °C
Pt de rosée: 9.6 °C 0.3 °C 5.2 °C
Humidité: 96 % 61 % 77 %
Vitesse du vent: 26.7 km/h 0.0 km/h 5.6 km/h
Rafales: 26.7 km/h - -
Vent:- - SSW
Pression: 1031.0 hPa 1028.0 hPa -
Précipitation: 0.0 mm    
Historical Graphs
 
 
Données statistiques pour Février 15, 2017
Heure Température Point de rosée Pression Vent Vitesse du vent Refales Humidité Pluie (taux horaire)
00:01 7.4 °C 2.9 °C 1029.0 hPa SSE 5.8 km/h 8.7 km/h 73 % 0.0 mm
00:06 7.3 °C 2.8 °C 1029.0 hPa Calm   7.6 km/h 73 % 0.0 mm
00:11 7.3 °C 2.7 °C 1029.0 hPa SSE 4.0 km/h 7.9 km/h 73 % 0.0 mm
00:16 7.3 °C 2.7 °C 1029.0 hPa Calm   7.9 km/h 73 % 0.0 mm
00:21 7.3 °C 2.9 °C 1029.0 hPa Calm   5.5 km/h 74 % 0.0 mm
00:26 7.2 °C 2.8 °C 1029.0 hPa SE 5.0 km/h 6.9 km/h 74 % 0.0 mm
00:31 7.2 °C 2.8 °C 1029.0 hPa SSE 1.8 km/h 6.9 km/h 74 % 0.0 mm
00:36 7.2 °C 2.8 °C 1029.0 hPa SSE 5.5 km/h 9.0 km/h 74 % 0.0 mm
00:41 7.2 °C 2.8 °C 1029.0 hPa Calm   9.0 km/h 74 % 0.0 mm
00:46 7.2 °C 2.8 °C 1029.0 hPa SE 8.7 km/h 9.7 km/h 74 % 0.0 mm
00:51 7.2 °C 2.8 °C 1029.0 hPa SSE 3.5 km/h 9.7 km/h 74 % 0.0 mm
00:56 7.1 °C 2.7 °C 1029.0 hPa Calm   7.9 km/h 74 % 0.0 mm
01:01 6.9 °C 2.6 °C 1029.0 hPa SSE 4.0 km/h 5.8 km/h 74 % 0.0 mm
01:06 6.9 °C 2.6 °C 1029.0 hPa Calm   4.0 km/h 74 % 0.0 mm
01:11 6.8 °C 2.6 °C 1029.0 hPa Calm   4.0 km/h 74 % 0.0 mm
01:16 6.8 °C 2.6 °C 1029.0 hPa Calm   7.9 km/h 75 % 0.0 mm
01:21 6.7 °C 2.6 °C 1029.0 hPa SE 2.6 km/h 7.9 km/h 75 % 0.0 mm
01:26 6.7 °C 2.6 °C 1029.0 hPa SSE 9.7 km/h 9.7 km/h 75 % 0.0 mm
01:31 6.6 °C 2.4 °C 1029.0 hPa SSE 7.9 km/h 11.6 km/h 75 % 0.0 mm
01:36 6.7 °C 2.6 °C 1029.0 hPa SSE 9.3 km/h 11.6 km/h 75 % 0.0 mm
01:41 6.8 °C 2.8 °C 1029.0 hPa SSE 9.0 km/h 10.5 km/h 76 % 0.0 mm
01:46 6.9 °C 2.8 °C 1029.0 hPa South 6.1 km/h 9.7 km/h 75 % 0.0 mm
01:51 6.9 °C 2.8 °C 1029.0 hPa SE 6.9 km/h 10.5 km/h 75 % 0.0 mm
02:07 7.2 °C 3.0 °C 1029.0 hPa Calm   10.5 km/h 75 % 0.0 mm
02:12 7.1 °C 2.9 °C 1029.0 hPa SSE 6.4 km/h 10.5 km/h 75 % 0.0 mm
02:17 6.9 °C 2.6 °C 1029.0 hPa Calm   9.0 km/h 74 % 0.0 mm
02:22 6.9 °C 2.6 °C 1029.0 hPa SSE 1.8 km/h 9.0 km/h 74 % 0.0 mm
02:27 7.1 °C 2.7 °C 1029.0 hPa Calm   9.0 km/h 74 % 0.0 mm
02:32 7.1 °C 2.7 °C 1029.0 hPa South 3.5 km/h 8.7 km/h 74 % 0.0 mm
02:37 7.1 °C 2.7 °C 1029.0 hPa Calm   5.5 km/h 74 % 0.0 mm
02:42 7.2 °C 2.8 °C 1029.0 hPa South 6.4 km/h 6.4 km/h 74 % 0.0 mm
02:47 7.3 °C 2.9 °C 1029.0 hPa SSE 2.1 km/h 9.7 km/h 74 % 0.0 mm
02:52 7.3 °C 2.9 °C 1029.0 hPa SSE 6.4 km/h 9.7 km/h 74 % 0.0 mm
02:57 7.3 °C 2.9 °C 1029.0 hPa Calm   8.7 km/h 74 % 0.0 mm
03:02 7.3 °C 3.0 °C 1029.0 hPa SSE 5.8 km/h 6.9 km/h 74 % 0.0 mm
03:07 7.3 °C 3.0 °C 1029.0 hPa South 5.8 km/h 6.9 km/h 74 % 0.0 mm
03:12 7.4 °C 3.1 °C 1029.0 hPa Calm   7.6 km/h 74 % 0.0 mm
03:17 7.4 °C 3.1 °C 1029.0 hPa Calm   7.6 km/h 74 % 0.0 mm
03:22 7.4 °C 3.1 °C 1029.0 hPa Calm   6.1 km/h 74 % 0.0 mm
03:27 7.4 °C 3.1 °C 1029.0 hPa Calm   6.1 km/h 74 % 0.0 mm
03:32 7.4 °C 2.9 °C 1029.0 hPa Calm   9.3 km/h 73 % 0.0 mm
03:37 7.3 °C 2.8 °C 1029.0 hPa Calm   9.3 km/h 73 % 0.0 mm
03:42 7.3 °C 2.8 °C 1029.0 hPa Calm   6.1 km/h 73 % 0.0 mm
03:47 7.3 °C 2.8 °C 1029.0 hPa Calm   6.1 km/h 73 % 0.0 mm
03:52 7.4 °C 3.1 °C 1029.0 hPa Calm   7.2 km/h 74 % 0.0 mm
03:57 7.6 °C 3.0 °C 1029.0 hPa Calm   10.1 km/h 73 % 0.0 mm
04:02 7.6 °C 3.0 °C 1029.0 hPa Calm   10.1 km/h 73 % 0.0 mm
04:07 7.6 °C 3.0 °C 1029.0 hPa Calm   4.0 km/h 73 % 0.0 mm
04:12 7.7 °C 3.1 °C 1029.0 hPa SSE 6.9 km/h 10.1 km/h 73 % 0.0 mm
04:17 7.7 °C 3.1 °C 1029.0 hPa Calm   10.1 km/h 73 % 0.0 mm
04:22 7.6 °C 2.8 °C 1029.0 hPa Calm   6.9 km/h 72 % 0.0 mm
04:27 7.3 °C 2.6 °C 1029.0 hPa Calm   5.8 km/h 72 % 0.0 mm
04:32 7.3 °C 2.6 °C 1029.0 hPa Calm   6.4 km/h 72 % 0.0 mm
04:37 7.1 °C 2.2 °C 1029.0 hPa South 3.2 km/h 9.7 km/h 71 % 0.0 mm
04:42 6.9 °C 2.1 °C 1029.0 hPa Calm   9.7 km/h 71 % 0.0 mm
04:47 6.8 °C 1.9 °C 1029.0 hPa SE 6.1 km/h 9.7 km/h 71 % 0.0 mm
04:52 6.7 °C 1.9 °C 1029.0 hPa Calm   9.3 km/h 72 % 0.0 mm
04:57 6.6 °C 1.9 °C 1029.0 hPa Calm   8.7 km/h 72 % 0.0 mm
05:02 6.3 °C 1.6 °C 1029.0 hPa Calm   8.7 km/h 72 % 0.0 mm
05:07 6.2 °C 1.5 °C 1029.0 hPa Calm   5.5 km/h 72 % 0.0 mm
05:12 6.0 °C 1.3 °C 1029.0 hPa SSE 8.7 km/h 9.0 km/h 72 % 0.0 mm
05:17 6.0 °C 1.5 °C 1029.0 hPa Calm   9.0 km/h 73 % 0.0 mm
05:23 5.9 °C 1.4 °C 1029.0 hPa Calm   5.8 km/h 73 % 0.0 mm
05:27 5.7 °C 1.2 °C 1029.0 hPa Calm   5.8 km/h 73 % 0.0 mm
05:33 5.5 °C 1.1 °C 1029.0 hPa Calm   3.5 km/h 73 % 0.0 mm
05:38 5.3 °C 1.1 °C 1028.0 hPa Calm   3.5 km/h 74 % 0.0 mm
05:43 5.3 °C 1.1 °C 1028.0 hPa Calm   1.8 km/h 74 % 0.0 mm
05:48 5.3 °C 1.2 °C 1028.0 hPa Calm   6.9 km/h 75 % 0.0 mm
05:53 5.3 °C 1.2 °C 1029.0 hPa SSE 4.0 km/h 9.0 km/h 75 % 0.0 mm
05:58 5.3 °C 1.2 °C 1029.0 hPa Calm   9.0 km/h 75 % 0.0 mm
06:03 5.2 °C 1.1 °C 1029.0 hPa Calm   4.7 km/h 75 % 0.0 mm
06:08 5.1 °C 1.0 °C 1029.0 hPa Calm   2.1 km/h 75 % 0.0 mm
06:13 5.0 °C 0.9 °C 1029.0 hPa Calm   5.8 km/h 75 % 0.0 mm
06:18 4.9 °C 0.8 °C 1029.0 hPa Calm   5.8 km/h 75 % 0.0 mm
06:23 4.9 °C 1.0 °C 1029.0 hPa Calm   4.7 km/h 76 % 0.0 mm
06:28 4.9 °C 1.0 °C 1029.0 hPa Calm   4.7 km/h 76 % 0.0 mm
06:33 5.0 °C 1.1 °C 1029.0 hPa SSE 4.3 km/h 4.3 km/h 76 % 0.0 mm
06:38 4.9 °C 1.0 °C 1029.0 hPa Calm   4.3 km/h 76 % 0.0 mm
06:43 4.8 °C 0.9 °C 1029.0 hPa Calm   4.3 km/h 76 % 0.0 mm
06:48 4.6 °C 0.7 °C 1029.0 hPa Calm   4.3 km/h 76 % 0.0 mm
06:53 4.4 °C 0.6 °C 1029.0 hPa Calm   2.1 km/h 76 % 0.0 mm
06:58 4.3 °C 0.6 °C 1029.0 hPa Calm   3.5 km/h 77 % 0.0 mm
07:03 4.3 °C 0.6 °C 1029.0 hPa Calm   3.5 km/h 77 % 0.0 mm
07:08 4.2 °C 0.6 °C 1029.0 hPa Calm     77 % 0.0 mm
07:13 4.1 °C 0.6 °C 1029.0 hPa Calm     78 % 0.0 mm
07:18 3.9 °C 0.4 °C 1029.0 hPa Calm     78 % 0.0 mm
07:23 3.8 °C 0.3 °C 1029.0 hPa Calm     78 % 0.0 mm
07:28 3.8 °C 0.5 °C 1029.0 hPa Calm     79 % 0.0 mm
07:33 3.8 °C 0.5 °C 1029.0 hPa Calm     79 % 0.0 mm
07:38 3.6 °C 0.5 °C 1029.0 hPa Calm     80 % 0.0 mm
07:43 3.6 °C 0.5 °C 1029.0 hPa Calm   1.4 km/h 80 % 0.0 mm
07:48 3.4 °C 0.3 °C 1029.0 hPa South 1.4 km/h 4.3 km/h 80 % 0.0 mm
07:53 3.4 °C 0.3 °C 1029.0 hPa Calm   4.3 km/h 80 % 0.0 mm
07:58 3.4 °C 0.5 °C 1029.0 hPa Calm   1.4 km/h 81 % 0.0 mm
08:03 3.4 °C 0.7 °C 1029.0 hPa Calm     82 % 0.0 mm
08:08 3.4 °C 0.7 °C 1029.0 hPa Calm     82 % 0.0 mm
08:13 3.3 °C 0.6 °C 1029.0 hPa Calm     82 % 0.0 mm
08:18 3.4 °C 0.8 °C 1029.0 hPa Calm   1.8 km/h 83 % 0.0 mm
08:23 3.4 °C 0.8 °C 1030.0 hPa Calm   1.8 km/h 83 % 0.0 mm
08:28 3.6 °C 1.1 °C 1030.0 hPa Calm     84 % 0.0 mm
08:33 3.6 °C 1.2 °C 1030.0 hPa Calm     84 % 0.0 mm
08:38 3.8 °C 1.6 °C 1030.0 hPa Calm     85 % 0.0 mm
08:43 4.1 °C 1.8 °C 1030.0 hPa Calm     85 % 0.0 mm
08:48 4.3 °C 2.0 °C 1030.0 hPa Calm     85 % 0.0 mm
08:53 4.6 °C 2.3 °C 1030.0 hPa Calm   4.7 km/h 85 % 0.0 mm
08:58 5.0 °C 2.7 °C 1030.0 hPa Calm   4.7 km/h 85 % 0.0 mm
09:03 5.4 °C 3.1 °C 1030.0 hPa Calm   4.0 km/h 85 % 0.0 mm
09:08 5.8 °C 3.4 °C 1030.0 hPa SE 6.1 km/h 6.9 km/h 85 % 0.0 mm
09:13 6.2 °C 3.8 °C 1030.0 hPa SSE 6.4 km/h 10.1 km/h 85 % 0.0 mm
09:18 6.6 °C 4.1 °C 1030.0 hPa Calm   10.1 km/h 84 % 0.0 mm
09:23 6.8 °C 4.2 °C 1030.0 hPa SSE 4.0 km/h 10.1 km/h 83 % 0.0 mm
09:28 7.2 °C 4.3 °C 1030.0 hPa SSE 3.5 km/h 10.1 km/h 82 % 0.0 mm
09:33 7.6 °C 4.5 °C 1030.0 hPa SSE 4.0 km/h 10.1 km/h 81 % 0.0 mm
09:38 7.7 °C 4.5 °C 1030.0 hPa SSE 2.1 km/h 8.7 km/h 80 % 0.0 mm
09:43 7.9 °C 4.5 °C 1030.0 hPa SW 10.5 km/h 10.5 km/h 79 % 0.0 mm
09:48 8.3 °C 4.7 °C 1030.0 hPa South 2.1 km/h 10.5 km/h 78 % 0.0 mm
09:53 8.7 °C 5.1 °C 1030.0 hPa Calm   8.7 km/h 78 % 0.0 mm
09:58 8.7 °C 4.7 °C 1030.0 hPa South 4.0 km/h 9.3 km/h 76 % 0.0 mm
10:03 8.6 °C 4.6 °C 1030.0 hPa South 9.0 km/h 9.3 km/h 76 % 0.0 mm
10:08 8.9 °C 4.7 °C 1030.0 hPa South 5.0 km/h 9.0 km/h 75 % 0.0 mm
10:13 9.2 °C 5.0 °C 1030.0 hPa South 2.6 km/h 8.7 km/h 75 % 0.0 mm
10:18 9.6 °C 5.4 °C 1030.0 hPa SSE 7.9 km/h 9.0 km/h 75 % 0.0 mm
10:23 9.6 °C 5.2 °C 1030.0 hPa SSW 10.1 km/h 10.1 km/h 74 % 0.0 mm
10:28 9.5 °C 4.9 °C 1030.0 hPa SSE 4.3 km/h 10.1 km/h 73 % 0.0 mm
10:33 9.4 °C 4.8 °C 1030.0 hPa Calm   16.3 km/h 73 % 0.0 mm
10:38 9.5 °C 4.9 °C 1030.0 hPa SSW 4.3 km/h 16.3 km/h 73 % 0.0 mm
10:43 9.6 °C 5.2 °C 1030.0 hPa South 6.1 km/h 9.0 km/h 74 % 0.0 mm
10:48 9.8 °C 5.2 °C 1030.0 hPa SW 8.7 km/h 10.1 km/h 73 % 0.0 mm
10:53 10.2 °C 5.8 °C 1031.0 hPa South 1.4 km/h 10.1 km/h 74 % 0.0 mm
10:58 10.8 °C 6.1 °C 1031.0 hPa South 7.9 km/h 10.5 km/h 73 % 0.0 mm
11:03 10.9 °C 5.8 °C 1031.0 hPa South 15.8 km/h 15.8 km/h 71 % 0.0 mm
11:08 11.2 °C 6.1 °C 1030.0 hPa South 4.7 km/h 16.6 km/h 71 % 0.0 mm
11:13 11.4 °C 6.2 °C 1030.0 hPa SSE 9.0 km/h 16.6 km/h 70 % 0.0 mm
11:18 11.8 °C 6.4 °C 1030.0 hPa South 9.7 km/h 13.7 km/h 70 % 0.0 mm
11:23 11.8 °C 6.1 °C 1030.0 hPa SSW 11.6 km/h 13.7 km/h 68 % 0.0 mm
11:28 11.8 °C 6.1 °C 1030.0 hPa SSE 13.7 km/h 13.7 km/h 68 % 0.0 mm
11:33 11.8 °C 5.9 °C 1030.0 hPa South 11.6 km/h 14.0 km/h 67 % 0.0 mm
11:38 11.9 °C 6.0 °C 1030.0 hPa South 13.0 km/h 17.2 km/h 67 % 0.0 mm
11:44 12.2 °C 6.4 °C 1030.0 hPa SSE 10.1 km/h 17.2 km/h 68 % 0.0 mm
11:49 12.3 °C 6.6 °C 1030.0 hPa SSE 13.7 km/h 15.4 km/h 68 % 0.0 mm
11:54 12.4 °C 6.5 °C 1030.0 hPa SSW 9.0 km/h 13.7 km/h 67 % 0.0 mm
11:59 12.7 °C 6.8 °C 1030.0 hPa South 7.6 km/h 13.7 km/h 67 % 0.0 mm
12:04 12.9 °C 6.9 °C 1030.0 hPa South 12.2 km/h 14.0 km/h 67 % 0.0 mm
12:09 13.1 °C 7.1 °C 1030.0 hPa SSW 10.5 km/h 15.4 km/h 67 % 0.0 mm
12:14 13.3 °C 7.3 °C 1030.0 hPa South 14.0 km/h 15.4 km/h 67 % 0.0 mm
12:19 13.4 °C 7.0 °C 1030.0 hPa SSE 12.6 km/h 16.9 km/h 65 % 0.0 mm
12:24 13.4 °C 7.2 °C 1030.0 hPa SSE 12.2 km/h 20.9 km/h 66 % 0.0 mm
12:29 13.7 °C 7.5 °C 1030.0 hPa ESE 9.3 km/h 20.9 km/h 66 % 0.0 mm
12:34 13.7 °C 7.3 °C 1030.0 hPa SSW 9.0 km/h 16.3 km/h 65 % 0.0 mm
12:39 13.8 °C 7.6 °C 1029.0 hPa SSW 15.8 km/h 19.8 km/h 66 % 0.0 mm
12:44 13.9 °C 7.4 °C 1029.0 hPa SSE 12.2 km/h 19.8 km/h 65 % 0.0 mm
12:49 14.0 °C 7.8 °C 1029.0 hPa South 9.3 km/h 15.8 km/h 66 % 0.0 mm
12:54 14.3 °C 8.1 °C 1029.0 hPa South 13.0 km/h 17.7 km/h 66 % 0.0 mm
12:59 14.3 °C 8.1 °C 1029.0 hPa South 6.9 km/h 17.7 km/h 66 % 0.0 mm
13:04 14.4 °C 7.9 °C 1029.0 hPa SSE 6.4 km/h 17.7 km/h 65 % 0.0 mm
13:09 14.6 °C 8.3 °C 1028.0 hPa South 7.9 km/h 17.7 km/h 66 % 0.0 mm
13:14 14.8 °C 8.3 °C 1028.0 hPa SSE 15.8 km/h 16.9 km/h 65 % 0.0 mm
13:19 14.9 °C 8.4 °C 1028.0 hPa South 6.9 km/h 16.9 km/h 65 % 0.0 mm
13:24 15.1 °C 8.6 °C 1029.0 hPa South 6.9 km/h 17.7 km/h 65 % 0.0 mm
13:29 15.1 °C 8.6 °C 1029.0 hPa SSE 10.5 km/h 17.7 km/h 65 % 0.0 mm
13:39 15.2 °C 8.7 °C 1029.0 hPa South 9.3 km/h 20.1 km/h 65 % 0.0 mm
13:44 15.4 °C 8.8 °C 1029.0 hPa South 11.6 km/h 17.2 km/h 65 % 0.0 mm
13:49 15.5 °C 8.9 °C 1029.0 hPa SW 10.8 km/h 16.3 km/h 65 % 0.0 mm
13:54 15.6 °C 9.0 °C 1029.0 hPa SSW 13.7 km/h 20.9 km/h 65 % 0.0 mm
14:00 16.0 °C 9.6 °C 1029.0 hPa SSE 11.9 km/h 20.9 km/h 66 % 0.0 mm
14:05 16.1 °C 9.5 °C 1029.0 hPa South 6.9 km/h 18.0 km/h 65 % 0.0 mm
14:10 16.2 °C 9.6 °C 1029.0 hPa SSW 11.9 km/h 18.0 km/h 65 % 0.0 mm
14:15 16.2 °C 9.1 °C 1029.0 hPa South 17.2 km/h 21.2 km/h 63 % 0.0 mm
14:20 16.2 °C 9.3 °C 1029.0 hPa South 8.7 km/h 21.2 km/h 64 % 0.0 mm
14:25 16.2 °C 9.3 °C 1029.0 hPa South 16.9 km/h 21.9 km/h 64 % 0.0 mm
14:30 16.2 °C 9.1 °C 1029.0 hPa South 16.6 km/h 21.9 km/h 63 % 0.0 mm
14:35 16.2 °C 9.1 °C 1029.0 hPa South 20.1 km/h 22.4 km/h 63 % 0.0 mm
14:40 16.1 °C 8.8 °C 1029.0 hPa South 13.7 km/h 22.4 km/h 62 % 0.0 mm
14:45 16.2 °C 8.9 °C 1029.0 hPa SSW 15.8 km/h 20.1 km/h 62 % 0.0 mm
14:50 16.3 °C 9.2 °C 1029.0 hPa SW 9.0 km/h 17.2 km/h 63 % 0.0 mm
14:55 16.2 °C 8.6 °C 1029.0 hPa South 13.7 km/h 21.6 km/h 61 % 0.0 mm
15:00 16.2 °C 8.6 °C 1029.0 hPa SSW 14.0 km/h 21.6 km/h 61 % 0.0 mm
15:05 16.3 °C 8.9 °C 1029.0 hPa South 17.2 km/h 19.1 km/h 62 % 0.0 mm
15:10 16.2 °C 9.1 °C 1029.0 hPa SW 11.6 km/h 19.1 km/h 63 % 0.0 mm
15:15 16.2 °C 9.1 °C 1029.0 hPa SSW 19.5 km/h 19.5 km/h 63 % 0.0 mm
15:20 16.1 °C 9.0 °C 1029.0 hPa South 19.8 km/h 20.1 km/h 63 % 0.0 mm
15:25 16.2 °C 9.1 °C 1029.0 hPa SSW 8.7 km/h 20.1 km/h 63 % 0.0 mm
15:31 16.1 °C 9.0 °C 1029.0 hPa SSW 15.8 km/h 18.0 km/h 63 % 0.0 mm
15:36 15.8 °C 8.5 °C 1029.0 hPa SSW 11.1 km/h 20.1 km/h 62 % 0.0 mm
15:41 15.7 °C 8.7 °C 1029.0 hPa SSW 18.3 km/h 20.1 km/h 63 % 0.0 mm
15:46 15.1 °C 8.3 °C 1029.0 hPa SSW 10.1 km/h 21.2 km/h 64 % 0.0 mm
15:51 15.0 °C 8.4 °C 1029.0 hPa SW 10.5 km/h 21.2 km/h 65 % 0.0 mm
15:56 15.3 °C 8.9 °C 1029.0 hPa South 14.0 km/h 19.8 km/h 66 % 0.0 mm
16:01 15.3 °C 8.9 °C 1029.0 hPa SSW 16.9 km/h 23.8 km/h 66 % 0.0 mm
16:06 15.3 °C 8.9 °C 1029.0 hPa South 16.3 km/h 23.8 km/h 66 % 0.0 mm
16:11 15.3 °C 9.2 °C 1029.0 hPa South 26.7 km/h 26.7 km/h 67 % 0.0 mm
16:16 15.2 °C 8.9 °C 1029.0 hPa South 16.3 km/h 26.7 km/h 66 % 0.0 mm
16:21 15.2 °C 9.1 °C 1029.0 hPa South 13.7 km/h 20.6 km/h 67 % 0.0 mm
16:26 15.0 °C 8.9 °C 1029.0 hPa South 11.9 km/h 20.1 km/h 67 % 0.0 mm
16:31 14.7 °C 8.8 °C 1029.0 hPa South 11.6 km/h 17.7 km/h 68 % 0.0 mm
16:36 14.4 °C 8.8 °C 1029.0 hPa SSW 12.2 km/h 17.7 km/h 69 % 0.0 mm
16:41 14.1 °C 8.7 °C 1029.0 hPa SSW 9.7 km/h 15.8 km/h 70 % 0.0 mm
16:46 13.9 °C 8.6 °C 1029.0 hPa South 9.7 km/h 15.8 km/h 70 % 0.0 mm
16:51 13.8 °C 8.8 °C 1029.0 hPa SSW 7.9 km/h 13.7 km/h 72 % 0.0 mm
16:56 13.8 °C 8.8 °C 1029.0 hPa WSW 8.7 km/h 13.0 km/h 72 % 0.0 mm
17:01 13.7 °C 8.9 °C 1029.0 hPa South 9.0 km/h 12.6 km/h 73 % 0.0 mm
17:06 13.7 °C 8.9 °C 1029.0 hPa South 7.9 km/h 13.0 km/h 73 % 0.0 mm
17:11 13.6 °C 9.1 °C 1029.0 hPa South 6.4 km/h 16.6 km/h 74 % 0.0 mm
17:16 13.6 °C 9.1 °C 1029.0 hPa South 5.8 km/h 16.6 km/h 74 % 0.0 mm
17:21 13.5 °C 9.0 °C 1029.0 hPa SSW 10.1 km/h 15.8 km/h 74 % 0.0 mm
17:26 13.5 °C 9.0 °C 1029.0 hPa South 6.9 km/h 11.9 km/h 74 % 0.0 mm
17:31 13.4 °C 9.1 °C 1029.0 hPa WSW 6.1 km/h 10.1 km/h 75 % 0.0 mm
17:41 12.9 °C 9.0 °C 1029.0 hPa WSW 10.8 km/h 21.9 km/h 77 % 0.0 mm
17:46 12.4 °C 8.7 °C 1029.0 hPa West 9.0 km/h 19.8 km/h 78 % 0.0 mm
17:51 12.2 °C 8.6 °C 1029.0 hPa West 8.7 km/h 13.0 km/h 79 % 0.0 mm
17:56 11.9 °C 8.6 °C 1029.0 hPa West 5.0 km/h 12.2 km/h 80 % 0.0 mm
18:01 11.8 °C 8.6 °C 1029.0 hPa West 6.1 km/h 9.3 km/h 81 % 0.0 mm
18:06 11.6 °C 8.6 °C 1029.0 hPa WSW 9.0 km/h 10.8 km/h 82 % 0.0 mm
18:11 11.4 °C 8.5 °C 1028.0 hPa WSW 9.0 km/h 11.9 km/h 82 % 0.0 mm
18:16 11.4 °C 8.7 °C 1028.0 hPa West 12.6 km/h 12.6 km/h 83 % 0.0 mm
18:21 11.3 °C 8.7 °C 1028.0 hPa West 9.0 km/h 12.6 km/h 84 % 0.0 mm
18:26 11.2 °C 8.6 °C 1029.0 hPa West 9.3 km/h 12.2 km/h 84 % 0.0 mm
18:31 11.0 °C 8.4 °C 1029.0 hPa WSW 9.3 km/h 13.0 km/h 84 % 0.0 mm
18:36 10.9 °C 8.3 °C 1029.0 hPa WSW 9.3 km/h 13.0 km/h 84 % 0.0 mm
18:41 10.7 °C 8.3 °C 1029.0 hPa WSW 9.3 km/h 12.6 km/h 85 % 0.0 mm
18:46 10.6 °C 8.2 °C 1029.0 hPa West 8.7 km/h 12.2 km/h 85 % 0.0 mm
18:51 10.5 °C 8.1 °C 1029.0 hPa WSW 5.8 km/h 9.3 km/h 85 % 0.0 mm
18:56 10.3 °C 7.9 °C 1029.0 hPa WSW 5.8 km/h 9.3 km/h 85 % 0.0 mm
19:02 10.2 °C 7.8 °C 1029.0 hPa WSW 5.0 km/h 6.4 km/h 85 % 0.0 mm
19:07 10.1 °C 7.8 °C 1029.0 hPa West 6.1 km/h 6.4 km/h 86 % 0.0 mm
19:12 10.0 °C 7.8 °C 1029.0 hPa WSW 5.5 km/h 6.4 km/h 86 % 0.0 mm
19:17 10.0 °C 7.8 °C 1029.0 hPa West 5.0 km/h 6.1 km/h 86 % 0.0 mm
19:22 10.0 °C 7.9 °C 1029.0 hPa West 6.1 km/h 6.9 km/h 87 % 0.0 mm
19:27 9.9 °C 7.8 °C 1030.0 hPa WSW 4.7 km/h 6.9 km/h 87 % 0.0 mm
19:32 9.9 °C 8.0 °C 1030.0 hPa WSW 5.5 km/h 6.1 km/h 88 % 0.0 mm
19:37 9.8 °C 7.9 °C 1030.0 hPa West 6.1 km/h 6.4 km/h 88 % 0.0 mm
19:42 9.8 °C 7.9 °C 1030.0 hPa WSW 5.8 km/h 6.4 km/h 88 % 0.0 mm
19:47 9.8 °C 8.1 °C 1030.0 hPa West 5.8 km/h 8.7 km/h 89 % 0.0 mm
19:52 9.8 °C 8.1 °C 1030.0 hPa WSW 9.7 km/h 9.7 km/h 89 % 0.0 mm
19:57 9.8 °C 8.1 °C 1030.0 hPa West 9.3 km/h 9.7 km/h 89 % 0.0 mm
20:02 9.9 °C 8.5 °C 1030.0 hPa WSW 9.3 km/h 9.7 km/h 91 % 0.0 mm
20:07 9.9 °C 8.5 °C 1030.0 hPa West 6.1 km/h 10.5 km/h 91 % 0.0 mm
20:12 9.8 °C 8.4 °C 1030.0 hPa West 10.1 km/h 12.2 km/h 91 % 0.0 mm
20:17 9.6 °C 8.2 °C 1030.0 hPa West 6.4 km/h 12.2 km/h 91 % 0.0 mm
20:22 9.5 °C 8.1 °C 1030.0 hPa West 4.3 km/h 11.6 km/h 91 % 0.0 mm
20:27 9.4 °C 8.0 °C 1030.0 hPa WSW 6.1 km/h 12.6 km/h 91 % 0.0 mm
20:32 9.3 °C 7.9 °C 1030.0 hPa West 6.9 km/h 12.6 km/h 91 % 0.0 mm
20:42 9.1 °C 7.6 °C 1030.0 hPa West 5.5 km/h 10.5 km/h 90 % 0.0 mm
20:47 8.9 °C 7.4 °C 1030.0 hPa West 5.5 km/h 10.5 km/h 90 % 0.0 mm
20:52 8.7 °C 7.2 °C 1030.0 hPa WNW 4.3 km/h 10.1 km/h 90 % 0.0 mm
20:57 8.5 °C 7.0 °C 1030.0 hPa West 6.9 km/h 9.0 km/h 90 % 0.0 mm
21:02 8.3 °C 6.8 °C 1030.0 hPa West 6.1 km/h 9.0 km/h 90 % 0.0 mm
21:03 8.3 °C 6.8 °C 1030.0 hPa WSW 6.4 km/h 9.0 km/h 90 % 0.0 mm
21:08 8.1 °C 6.6 °C 1030.0 hPa WSW 5.5 km/h 9.0 km/h 90 % 0.0 mm
21:13 7.8 °C 6.2 °C 1030.0 hPa WSW 4.0 km/h 7.9 km/h 89 % 0.0 mm
21:18 7.3 °C 5.6 °C 1030.0 hPa WSW 5.0 km/h 6.1 km/h 89 % 0.0 mm
21:23 7.1 °C 5.4 °C 1030.0 hPa WSW 5.5 km/h 6.1 km/h 89 % 0.0 mm
21:28 6.8 °C 5.1 °C 1030.0 hPa Calm   6.9 km/h 89 % 0.0 mm
21:33 6.8 °C 5.2 °C 1030.0 hPa WSW 7.9 km/h 7.9 km/h 90 % 0.0 mm
21:38 7.1 °C 5.7 °C 1030.0 hPa WSW 8.7 km/h 9.7 km/h 91 % 0.0 mm
21:43 7.3 °C 6.1 °C 1030.0 hPa West 5.8 km/h 9.7 km/h 92 % 0.0 mm
21:48 7.3 °C 6.3 °C 1030.0 hPa West 6.9 km/h 9.0 km/h 93 % 0.0 mm
21:53 7.3 °C 6.3 °C 1031.0 hPa West 7.9 km/h 9.3 km/h 93 % 0.0 mm
21:58 7.3 °C 6.3 °C 1031.0 hPa West 5.8 km/h 9.7 km/h 93 % 0.0 mm
22:03 7.1 °C 5.8 °C 1031.0 hPa West 6.1 km/h 9.7 km/h 92 % 0.0 mm
22:08 6.8 °C 5.6 °C 1031.0 hPa West 6.4 km/h 6.9 km/h 92 % 0.0 mm
22:13 6.8 °C 5.7 °C 1031.0 hPa WSW 9.7 km/h 9.7 km/h 92 % 0.0 mm
22:18 6.9 °C 5.9 °C 1031.0 hPa West 5.8 km/h 9.7 km/h 93 % 0.0 mm
22:23 7.1 °C 6.2 °C 1031.0 hPa West 5.0 km/h 8.7 km/h 94 % 0.0 mm
22:28 6.8 °C 5.7 °C 1031.0 hPa West 4.7 km/h 8.7 km/h 93 % 0.0 mm
22:33 6.4 °C 5.4 °C 1031.0 hPa Calm   6.9 km/h 93 % 0.0 mm
22:38 6.4 °C 5.3 °C 1031.0 hPa Calm   5.8 km/h 93 % 0.0 mm
22:43 6.2 °C 5.1 °C 1031.0 hPa Calm   4.7 km/h 93 % 0.0 mm
22:48 6.0 °C 4.9 °C 1031.0 hPa Calm     93 % 0.0 mm
22:53 5.8 °C 4.7 °C 1030.0 hPa Calm   1.8 km/h 93 % 0.0 mm
22:58 5.6 °C 4.6 °C 1030.0 hPa Calm   1.8 km/h 93 % 0.0 mm
23:03 5.5 °C 4.4 °C 1030.0 hPa Calm     93 % 0.0 mm
23:08 5.3 °C 4.3 °C 1031.0 hPa Calm   1.4 km/h 93 % 0.0 mm
23:13 5.0 °C 3.9 °C 1031.0 hPa Calm   1.4 km/h 93 % 0.0 mm
23:18 4.9 °C 3.9 °C 1031.0 hPa Calm   4.0 km/h 93 % 0.0 mm
23:23 4.9 °C 4.0 °C 1030.0 hPa West 5.0 km/h 5.8 km/h 94 % 0.0 mm
23:28 4.8 °C 4.1 °C 1030.0 hPa Calm   5.8 km/h 95 % 0.0 mm
23:33 4.8 °C 4.1 °C 1030.0 hPa Calm   5.5 km/h 95 % 0.0 mm
23:38 4.6 °C 3.9 °C 1031.0 hPa Calm     95 % 0.0 mm
23:48 4.7 °C 4.1 °C 1031.0 hPa Calm     96 % 0.0 mm
23:53 4.6 °C 4.0 °C 1030.0 hPa Calm     96 % 0.0 mm
23:58 4.5 °C 3.9 °C 1030.0 hPa Calm     96 % 0.0 mm
Le Gheer Warneton
Courtoisie de Weather Underground - 2.25 mb

Mise a jour : 16-12-17 15:37:11
Généré par Cumulus 1.9.4 (1099)